BEESAT-3 (39135 NORAD) Tracking and Keplerian Element Data

This shows tracking and keplerian element data for the satellite.

Feedback or suggestion? Click here.




ElementValue
Catalog39135
NameBEESAT-3
Epoch Orbit30692
Epoch Day317.62196284
Epoch Year2018
RAAN18.6982
Inclination64.8709
Eccentricity0.000936
Argument of Perigee255.39
Mean Anonmoly104.6188
Mean Motion15.17009834
Decay Rate1.005E-05
L11 39135U 13015F 18317.62196284 .00001005 00000-0 60423-4 0 9994
L22 39135 64.8709 18.6982 0009360 255.3900 104.6188 15.17009834306929

Live tracking and technical data element details for BEESAT-3 (NORAD 39135). BEESAT-3 can be tracked NOW for your location showing map with azimuth and elevation plus other details from your city location.

Track the satellite on the map from your city or location and see movement details for azimuth, elevation, latitude, longitude, range, height, and movement on the map or in text.







IsCatalogInMostPopularTable: catalog: 39135, numindb: 118
Update: records affected: 1



GetName: 39135 BEESAT-3

Hit Count: updated at: Wed, 14 Nov 2018 11:05:41 GMT